EW2862 Weather Reports


time (UTC)temp
F
wind
direction
speed
knots
gust
knots
rain 1hr
in
rain 24hr
in
rain mn
in
humidity
%
barometer
mb
20260505011519 77 245 0.0 6.1 0.00 0.00 0.00 51 1002.2
20260505010015 77 253 0.0 6.1 0.00 0.00 0.00 50 1002.1
20260505004531 78 234 0.9 9.6 0.00 0.00 0.00 49 1002.1
20260505003014 79 234 1.7 11.3 0.00 0.00 0.00 48 1001.9
20260505001515 81 234 0.0 6.1 0.00 0.00 0.00 47 1001.8
20260505000018 82 250 0.9 10.4 0.00 0.00 0.00 47 1001.8
20260504234524 82 228 0.9 9.6 0.00 0.00 0.00 46 1001.9
20260504233011 83 202 1.7 8.7 0.00 0.00 0.00 46 1002.0
20260504231528 82 205 0.0 4.3 0.00 0.00 0.00 47 1002.1
20260504230011 83 205 1.7 10.4 0.00 0.00 0.00 45 1002.2
20260504224506 82 224 0.0 15.6 0.00 0.00 0.00 46 1002.3
20260504223006 81 223 1.7 11.3 0.00 0.00 0.00 46 1002.4
20260504221505 82 273 2.6 12.2 0.00 0.00 0.00 46 1002.3
20260504220004 83 254 1.7 10.4 0.00 0.00 0.00 47 1002.4
20260504214504 83 231 0.0 7.0 0.00 0.00 0.00 47 1002.4
20260504213105 83 203 1.7 10.4 0.00 0.00 0.00 46 1002.5
20260504211559 82 269 1.7 12.2 0.00 0.00 0.00 48 1002.5
20260504204634 82 286 2.6 15.6 0.00 0.00 0.00 48 1002.6
20260504203052 81 205 3.5 9.6 0.00 0.00 0.00 50 1002.7
20260504201547 80 156 2.6 11.3 0.00 0.00 0.00 52 1003.2
20260504200046 79 248 1.7 9.6 0.00 0.00 0.00 55 1003.3
20260504194548 77 243 1.7 7.0 0.00 0.00 0.00 63 1003.8
20260504193035 74 209 0.0 2.6 0.00 0.00 0.00 65 1003.9
20260504191531 73 178 0.0 4.3 0.00 0.00 0.00 66 1004.2
20260504190033 70 196 0.0 3.5 0.00 0.00 0.00 72 1004.4
20260504184526 68 182 0.9 7.0 0.00 0.00 0.00 70 1003.7
20260504183027 68 163 1.7 8.7 0.00 0.00 0.00 69 1004.2
20260504181522 69 180 0.0 1.7 0.00 0.00 0.00 65 1005.0
20260504180021 69 183 0.0 5.2 0.00 0.00 0.00 64 1005.0
20260504174520 70 198 0.0 6.1 0.00 0.00 0.00 63 1005.0
20260504173018 70 146 0.0 7.0 0.00 0.00 0.00 63 1005.2
20260504171533 70 215 0.0 3.5 0.00 0.00 0.00 64 1005.8
20260504150106 65 192 0.0 3.5 0.00 0.01 0.00 70 1006.9
20260504081536 59 331 0.0 0.0 0.00 0.01 0.00 80 1008.5
20260504044602 66 331 0.0 0.0 0.00 0.01 0.01 65 1008.5
20260504043053 66 331 0.0 0.0 0.00 0.01 0.01 64 1008.6
20260504041552 67 331 0.0 3.5 0.00 0.01 0.01 61 1009.1
20260504040051 68 309 2.6 6.1 0.00 0.01 0.01 63 1009.3
20260504034607 69 288 0.0 7.0 0.00 0.01 0.01 58 1009.3
20260504033050 69 198 0.0 0.9 0.00 0.01 0.01 58 1008.8
20260504031550 68 200 0.0 0.9 0.00 0.01 0.01 59 1009.5
20260504030048 68 257 0.0 0.0 0.00 0.01 0.01 63 1009.7
20260504024547 69 259 0.0 0.0 0.00 0.01 0.01 62 1009.4
20260504023047 70 259 0.0 0.0 0.00 0.01 0.01 60 1009.4
20260504021547 71 259 0.0 0.0 0.00 0.01 0.01 56 1009.4
20260504020046 72 259 0.0 0.0 0.00 0.01 0.01 54 1009.3
20260504014600 73 259 0.0 0.0 0.00 0.01 0.01 53 1009.3
20260504013051 73 259 0.0 0.9 0.00 0.01 0.01 51 1009.3